AZERSPACE 2 (IS-38)

Last updated on Sun Jun 21 2026 00:03:07 GMT+0000 (Coordinated Universal Time)

1 43632U 18074A 26171.18709704 .00000132 00000+0 00000+0 0 9995 2 43632 0.0176 12.5072 0001411 75.0400 293.3134 1.00271425 28472
UTC large
Height (km)
Speed (km/s)
/
Latitude / Longitude
Inclination (degrees)
Orbital Period (minutes)
Azimuth
Elevation
Range (km)
Doppler Factor

Next 0 passes for location: London (51.5072 / 0.1276)

No passes found over London.
AZERSPACE 2 (IS-38)